Voltar ao catálogo

OV1-5 DEB

AtivoLEO
NORAD 5361·DEBRIS·🇺🇸 United States

Lançado Mar 30, 1966 de Vandenberg Space Force Base

Loading…

Próximas Passagens (próximas 24 horas)

TLE

AtualizadoSource: Space-Track

Época: Sep 14, 2026, 04:51 UTC

1 05361U 66025F   26257.20241882  .00005915  00000-0  11999-2 0  9994
2 05361 144.6110 106.2234 0019960 200.3674 159.6229 14.57437818381823

Acompanhe OV1-5 DEB em tempo real com AllMySat

Download on the App Store